CSS (TIANHE-1), 48274

Orbit data source: Space-Track

The Chinese Space Station (CSS), known as Tiangong or "Heavenly Palace," is China's independently developed space station that represents a significant step in China’s space exploration capabilities. Launched in phases starting with the Tianhe module in 2021, the station operates in low Earth orbit (LEO). It aims to support a variety of scientific experiments in fields such as space medicine, astronomy, and technology development.

Loading next visibility...
Identifier
48274, 2021-035A
Orbit
LEO
Country
Flag of CNCN / PRC
Related business
Manufacturer
CAST
Mission
Operational Civil Spaceship
Bus & Motor
TIANHE, Unknown motor
Mass
22,500 kg wet, ~20,838 kg dry
Launch date (UTC)
2021-04-29 (5 years ago)
Launch vehicle
CHANG ZHENG 5B
Launch site
Wenchang Satellite Launch Center (WSC)
Object type
Payload
Rocket body
Debris
Shape & HBR
Irr, 27.5 m
Radar Cross Section
2905.500 m², Large (>1 m²)

Expand to show TLE details & history
Last TLE update: 12 hours ago

TLE from 12 hours ago
0 CSS (TIANHE-1)
1 48274U 21035A   26127.59792897  .00019425  00000-0  20743-3 0  9990
2 48274  41.4664 208.9614 0004935 350.6261   9.4486 15.63441094286820
Epoch: 2026-05-07T14:21Z
TLE epoch observation values (Epoch: 2026-05-07T14:21:01.063Z)
Latitude
0.00001°
Longitude
128.2652°
Altitude
374.036 km
Speed
7.689 km/s
True Right ascension
13h 55m 50s
True Declination
0° 00' 00"
Sunlit
Object was in full shadow at epoch
Visualization orbit readout
Latitude
Unknown
Longitude
Unknown
Altitude
Unknown
Speed
Unknown
Apparent Right ascension
Unknown
Apparent Declination
Unknown
Sunlit
N/A
Visualization observer readout
Local Sidereal Time
10:31:00
Azimuth
Unknown
Elevation
Unknown
Doppler factor
Unknown
Orbital elements
Apogee altitude
383.297 km
Perigee altitude
376.627 km
Semi-major axis
6,758.099 km
Eccentricity
0.00049
Inclination
41.4664°
RAAN
208.9614°
Arg. of periapsis
350.6261°
True anomaly
9.45789°
Mean anomaly
9.4486°
Eccentric anomaly
9.45324°
Mean motion
3.90667 °/min
Orbital period
92.15 mins
BSTAR
0.00020743
Loading maneuver chart data...
Computing Atmospheric mass density...
Loading historical data...
Loading historical data...
Loading historical data...
Loading historical data...
Loading historical data...
Loading historical data...
Loading historical data...
Other satellites on launch #35 in the year 2021 (2021-04-29 UTC)

Documentation

Showing up to 5 results
|